Temperature
18 18 18 18 18 18 18 18 18 18 18 18 18 18 18 18 18 18 18 18 18 18 17 17 17 17 17 17 17 17 17 17 17 17 17 17 17 17 17 17 17 17 17
18 18 18 18 18 18 18 18 18 18 18 18 18 18 18 18 18 18 18 18 18 18 17 17 17 17 17 17 17 17 17 17 17 17 17 17 17 17 17 17 17 17 17
18 18 18 18 18 18 18 18 18 18 18 18 18 18 18 18 18 18 18 18 18 17 17 17 17 17 17 17 17 17 17 17 17 17 17 17 17 17 17 17 17 16 16
18 18 18 18 18 18 18 18 18 18 18 18 18 18 18 18 18 18 18 18 18 18 17 17 17 17 17 17 17 17 17 17 17 17 17 16 16 16 16 16 16 16 16
18 18 18 18 18 18 18 18 18 18 18 18 18 18 18 18 18 18 18 18 18 18 17 17 17 17 17 17 17 17 17 17 17 17 16 16 16 16 16 16 16 16 16
18 18 18 18 18 18 18 18 18 18 18 18 18 18 18 18 18 18 18 18 18 17 17 17 17 17 17 17 17 17 17 17 17 16 16 16 16 16 16 16 16 16 16
18 18 18 18 18 18 18 18 18 18 18 18 18 18 18 18 17 17 17 17 17 17 17 17 17 17 17 17 16 16 16 16 16 16 16 16 16 16 16 16 16 16 15
18 18 18 18 18 18 18 18 18 18 17 17 17 17 17 17 17 17 17 17 17 17 17 17 17 17 17 17 16 16 16 16 16 16 16 16 16 16 16 16 15 15 15
18 18 18 18 18 17 18 18 18 17 17 17 17 17 17 17 17 17 17 17 17 17 17 17 17 17 17 16 16 16 16 16 16 16 16 16 16 16 16 15 15 15 15
18 18 18 18 18 17 17 17 17 17 17 17 17 17 17 17 17 16 16 17 17 17 17 17 16 16 16 16 16 16 16 16 16 16 16 16 15 15 15 15 15 15 15
18 18 18 18 17 17 17 17 17 17 17 17 17 17 16 16 16 16 16 16 16 16 16 16 16 16 16 16 16 16 16 16 16 16 15 15 15 15 15 15 15 15 15
17 17 17 17 17 17 17 17 17 17 17 17 17 16 16 16 16 16 16 16 16 16 16 16 16 16 16 16 16 16 15 15 15 15 15 15 15 15 15 15 15 15 15
17 17 17 17 17 17 17 17 17 16 16 16 16 16 16 16 16 16 16 16 15 16 16 16 16 16 15 15 15 15 15 15 15 15 15 15 15 15 15 15 15 15 15
17 17 17 17 17 17 16 17 16 16 16 16 16 16 16 16 15 15 15 15 15 15 15 15 15 15 15 15 15 15 15 15 15 15 15 15 14 14 14 14 14 14 14
17 17 17 17 16 16 16 16 16 16 16 16 15 15 15 15 15 15 15 15 15 15 15 15 15 15 15 15 15 15 15 15 15 14 14 14 14 14 14 14 14 14 14
17 16 16 16 16 16 16 16 16 16 16 15 15 15 15 15 15 15 15 15 15 15 14 14 15 15 15 14 14 14 15 15 14 14 14 14 14 14 14 14 14 14 14
16 16 16 16 16 16 16 16 15 15 15 15 15 15 15 15 15 15 15 15 14 14 14 14 14 14 14 14 14 14 14 14 14 14 14 14 14 14 14 14 14 14 14
16 16 16 15 15 15 15 15 15 15 15 15 15 15 15 15 14 14 14 14 14 14 14 14 14 14 14 14 14 14 14 14 14 14 14 14 14 14 14 14 14 14 14
16 15 15 15 15 15 15 15 15 14 14 15 15 15 14 14 14 14 14 14 13 13 13 13 13 14 14 14 14 14 14 14 14 14 14 14 14 14 14 14 14 13 13
15 15 15 15 15 15 15 14 14 14 14 14 14 14 14 14 14 14 14 13 13 13 13 13 13 13 13 13 13 13 13 13 13 13 13 13 13 13 13 13 13 13 13
15 15 15 15 15 14 14 14 14 14 14 14 14 14 14 14 14 13 13 13 13 13 13 13 13 13 13 13 13 13 13 13 13 13 13 13 13 13 13 13 13 13 13
15 15 15 15 14 14 14 14 14 14 14 14 14 13 13 13 13 13 13 13 13 13 13 13 12 12 12 12 12 12 12 12 12 12 12 13 13 13 13 13 13 13 12
15 15 14 14 14 14 14 14 13 13 13 13 13 13 13 13 13 13 13 13 13 12 12 12 12 12 12 12 12 12 12 12 12 12 12 12 12 12 12 12 12 12 12
14 14 14 14 14 13 13 13 13 13 13 13 13 13 13 13 13 12 12 12 13 12 12 12 12 12 12 12 12 12 11 11 12 12 12 12 12 12 12 12 12 12 12
14 14 14 14 13 13 13 13 13 13 13 13 12 12 12 12 12 12 12 12 12 12 12 12 12 12 12 12 11 11 11 11 11 11 11 11 11 11 12 12 12 12 12
14 13 13 13 13 13 12 12 12 12 12 12 12 12 12 12 11 11 11 11 12 12 12 12 11 11 11 11 11 11 11 11 11 11 11 11 11 11 11 11 11 11 11
Wind_Speed
1 1 1 1 1 1 1 1 2 2 1 1 1 1 1 1 2 2 2 4 5 6 7 8 8 8 8 9 9 10 11 11 11 11 11 10 10 10 11 12 12 12 12
1 1 1 1 1 1 1 1 1 1 1 1 0 1 1 1 1 1 1 2 3 4 6 7 8 8 8 8 9 9 10 11 11 11 11 11 10 10 10 11 13 13 13
1 1 1 1 1 1 1 2 2 2 2 1 1 1 1 1 1 1 1 1 2 3 4 5 7 8 8 8 9 9 10 10 11 11 12 12 11 10 9 10 11 12 12
2 2 1 1 1 1 2 2 2 2 2 1 1 1 1 1 1 0 0 1 1 2 2 4 5 7 8 8 9 10 10 11 11 11 12 11 11 10 9 9 10 10 12
3 2 2 1 1 2 2 2 2 2 1 1 1 1 1 1 0 0 0 0 0 1 2 2 3 2 4 6 9 9 10 10 11 11 12 11 11 10 9 9 9 10 11
3 2 2 1 2 2 2 2 2 2 1 1 2 2 2 1 1 1 0 1 0 0 1 1 0 1 2 2 3 6 8 9 9 10 11 10 9 8 8 8 8 9 9
2 2 1 1 2 1 1 1 2 2 2 1 2 2 2 2 2 1 1 1 1 0 0 1 1 1 1 2 2 2 4 5 7 8 8 9 9 9 9 9 9 9 9
2 1 1 1 1 1 2 2 2 1 1 2 1 1 2 3 3 3 2 1 1 1 0 0 1 2 2 2 2 1 2 3 4 5 8 9 9 9 10 10 9 9 8
2 2 1 1 1 1 1 1 1 2 1 2 2 2 1 1 1 2 2 2 2 1 1 1 1 2 2 2 2 2 1 2 4 5 6 8 8 8 10 10 10 9 9
2 2 2 1 1 1 1 0 1 1 2 1 1 1 0 1 1 1 2 2 2 2 1 1 1 1 1 2 2 2 2 2 3 4 5 6 6 7 8 9 9 8 8
3 3 2 2 1 1 1 1 1 2 1 1 1 0 1 1 1 1 1 2 2 2 2 2 1 1 1 1 2 1 1 2 3 3 4 5 5 6 7 7 8 7 7
2 3 2 2 1 1 0 0 1 1 1 1 1 1 1 1 1 1 2 1 2 2 2 1 1 1 1 1 1 1 1 1 2 2 2 3 3 4 5 7 8 7 7
2 3 2 2 1 1 1 1 2 1 1 1 1 1 1 1 1 2 2 1 1 2 2 1 1 1 1 1 1 1 2 1 1 1 1 1 2 3 5 6 7 7 7
1 2 2 2 2 2 2 2 1 1 1 1 1 1 1 0 1 1 2 2 0 1 1 2 1 1 1 1 1 2 2 2 2 1 2 2 3 4 5 4 4 5 6
1 1 2 2 2 2 2 1 1 0 1 1 0 0 0 0 1 1 1 2 2 1 2 2 1 2 2 1 2 1 2 2 2 2 2 3 3 4 4 4 3 4 5
1 1 2 2 2 2 1 1 1 0 1 0 0 1 0 0 0 1 1 1 2 2 2 2 2 2 2 2 2 2 2 3 4 4 4 4 4 3 3 3 4 4 5
1 1 1 1 2 2 1 1 1 0 0 1 1 0 0 0 0 0 0 1 1 2 2 2 2 2 2 2 3 2 2 2 3 4 4 4 3 3 3 4 4 5 5
1 1 1 1 1 2 1 1 1 1 1 1 1 1 1 0 0 0 0 0 0 1 2 2 2 2 2 3 2 3 2 2 2 3 4 4 3 3 3 4 4 5 5
1 1 1 1 1 1 1 1 1 2 2 2 2 1 1 0 0 0 0 0 1 0 1 2 2 2 2 2 2 2 3 2 2 2 2 2 2 3 3 4 4 5 5
1 1 2 1 2 1 2 2 1 2 2 2 2 1 1 1 1 1 1 1 1 0 0 1 2 2 2 2 1 2 3 2 2 2 2 2 2 2 3 3 4 5 5
2 2 2 3 3 2 2 2 1 2 2 2 2 2 2 1 1 1 1 1 1 1 1 1 1 1 2 2 2 1 2 3 3 2 2 2 2 2 2 3 3 4 4
2 3 3 3 3 3 5 4 2 1 1 1 2 3 2 2 2 1 1 2 2 2 2 2 2 2 3 3 2 2 2 2 2 2 1 3 1 2 2 2 2 3 4
2 3 3 3 3 4 6 6 5 2 2 2 2 2 3 3 3 2 2 1 1 2 3 3 3 4 3 3 2 2 2 2 3 3 2 3 2 2 2 2 2 2 3
2 2 3 3 3 5 7 6 5 3 3 3 3 2 2 3 4 3 2 2 2 2 2 3 4 4 4 4 4 3 3 2 3 2 2 2 2 2 2 2 2 2 2
2 2 2 3 3 5 7 6 5 3 3 4 4 3 3 3 5 5 2 2 3 3 3 2 2 3 3 3 3 2 2 1 2 2 1 1 2 1 1 2 2 2 2
1 2 3 3 3 3 6 6 5 2 3 4 4 4 5 5 6 5 2 2 3 4 4 4 3 4 3 2 2 3 3 3 2 2 1 1 1 1 2 1 1 2 2
Wind_Direction
94 76 55 35 11 24 32 29 45 64 74 97 137 140 139 158 171 180 197 205 209 210 212 212 213 214 213 210 206 207 208 210 209 205 206 210 213 214 216 214 209 207 205
111 110 83 41 16 22 59 53 51 66 65 84 88 126 148 149 146 196 215 214 218 216 218 219 219 220 217 214 213 214 216 216 212 210 211 213 216 219 221 218 211 206 205
106 109 94 51 18 38 64 63 50 64 64 62 46 55 104 119 134 229 226 210 221 228 235 236 231 230 229 227 222 223 222 218 216 215 215 216 218 221 220 216 211 209 207
99 100 85 48 37 63 69 67 55 65 60 52 31 27 47 58 12 281 199 193 204 212 238 251 249 244 241 237 230 227 225 222 221 220 217 216 219 221 219 216 216 213 211
80 92 85 49 50 62 58 69 62 80 70 37 46 40 45 57 18 37 93 93 179 205 216 243 257 263 258 252 244 237 231 229 227 223 221 222 222 223 220 218 220 220 218
65 76 73 39 54 61 53 64 71 63 84 59 60 46 38 25 35 35 359 34 63 192 202 201 226 273 279 281 271 249 239 233 230 228 222 220 219 219 218 216 217 220 223
68 85 71 48 57 67 61 60 86 74 61 65 71 42 26 28 26 9 4 23 11 11 144 193 233 266 278 279 279 263 232 221 222 222 218 217 218 218 216 216 219 223 226
41 86 99 79 63 70 55 59 81 84 51 53 85 72 8 4 15 14 18 43 21 38 23 283 245 254 267 271 286 299 218 216 219 221 215 212 215 217 218 220 220 221 224
28 42 63 79 81 106 95 63 92 114 85 39 52 115 128 250 318 354 15 21 21 36 8 8 286 267 266 269 271 269 245 232 226 228 223 213 212 220 223 222 220 221 224
26 43 55 69 71 76 82 34 91 109 122 107 36 38 107 166 183 325 347 1 11 22 356 344 332 319 298 276 268 263 243 243 240 242 234 215 206 216 221 220 217 217 223
19 27 37 50 57 56 33 43 80 98 118 140 137 112 88 63 117 182 289 332 355 356 342 325 333 357 331 297 274 266 262 251 246 248 242 229 224 224 221 223 219 217 219
3 12 26 33 38 41 20 36 93 113 119 125 120 122 150 166 185 175 220 286 321 328 337 347 347 339 333 321 309 321 319 285 256 239 241 231 226 232 228 228 229 224 223
344 341 359 7 8 360 22 73 83 78 109 121 141 149 168 192 174 162 172 229 299 313 330 341 299 299 327 352 322 312 302 295 271 238 236 233 233 239 240 236 236 232 232
294 325 355 3 10 24 40 68 72 59 87 110 102 139 163 156 140 165 170 166 244 340 344 298 297 302 321 319 313 293 296 282 245 228 229 241 248 247 241 238 239 241 238
321 19 20 12 14 27 33 62 75 62 83 85 231 157 126 80 151 190 185 180 172 233 289 295 304 322 322 314 308 292 278 281 270 254 242 244 254 256 245 233 236 245 242
355 21 15 1 3 13 30 69 68 43 92 254 204 105 57 282 107 145 177 182 182 193 245 292 280 299 313 320 322 298 280 278 270 253 247 249 255 261 255 243 241 245 244
8 13 345 353 1 9 18 51 12 18 17 323 337 86 283 252 134 43 102 142 161 168 220 285 298 311 311 318 329 332 311 284 280 259 252 247 251 259 261 257 253 255 252
358 346 344 360 353 7 11 8 324 334 319 304 299 293 292 318 39 355 99 200 199 202 205 262 301 311 298 307 320 327 334 317 288 277 263 249 240 245 251 259 258 266 260
13 3 19 9 347 345 349 326 303 307 297 282 275 254 261 177 262 252 212 228 256 201 203 232 280 299 304 317 330 332 336 329 320 306 281 263 251 249 250 250 259 263 260
55 26 11 350 326 326 332 323 319 310 305 300 300 286 257 204 221 204 203 223 220 181 206 245 278 299 296 306 314 317 327 331 323 330 330 306 288 287 279 266 258 259 258
50 34 25 11 358 357 356 348 325 326 326 338 344 330 308 267 199 194 205 209 184 197 229 258 277 296 295 296 301 301 308 313 310 314 320 318 308 304 306 280 262 255 251
46 46 32 24 21 18 14 18 13 335 345 355 340 332 329 325 312 294 243 212 189 195 212 223 253 261 275 277 298 299 304 313 308 323 313 304 294 284 297 297 274 255 250
54 49 32 31 23 11 19 22 29 36 21 1 345 337 338 344 349 330 315 304 273 233 212 215 236 254 258 249 241 273 275 281 276 289 288 296 296 289 297 299 275 259 250
59 53 36 26 21 12 18 20 29 37 28 10 360 350 342 339 348 350 329 321 306 293 264 240 238 251 253 246 229 233 249 269 276 271 242 272 297 294 308 315 303 281 266
51 45 44 34 27 6 12 17 28 28 26 11 3 3 360 348 349 358 353 325 317 312 314 314 280 277 275 251 218 212 227 242 284 289 235 242 282 298 299 298 317 320 292
78 61 47 34 25 7 9 25 34 39 23 3 358 358 2 355 345 349 333 315 310 309 324 333 336 336 330 307 230 214 216 222 251 267 244 222 264 290 296 291 315 337 343
Height
1499 1499 1499 1499 1499 1499 1499 1499 1499 1499 1499 1500 1500 1501 1501 1501 1502 1502 1503 1504 1504 1505 1506 1507 1508 1510 1511 1512 1514 1515 1516 1518 1519 1520 1521 1522 1523 1524 1524 1524 1526 1529 1532
1499 1500 1500 1500 1500 1500 1500 1499 1499 1499 1500 1500 1501 1501 1501 1501 1502 1503 1503 1504 1504 1505 1506 1507 1508 1509 1510 1510 1512 1513 1514 1515 1516 1517 1518 1519 1520 1520 1520 1519 1521 1525 1528
1500 1500 1500 1500 1500 1500 1500 1500 1500 1499 1500 1500 1501 1501 1501 1502 1502 1503 1503 1504 1504 1504 1505 1506 1507 1507 1508 1509 1509 1510 1511 1512 1513 1515 1516 1517 1517 1518 1517 1517 1518 1522 1525
1501 1501 1501 1501 1501 1500 1500 1500 1500 1500 1500 1500 1501 1501 1502 1502 1502 1503 1503 1503 1503 1504 1504 1505 1505 1505 1506 1506 1507 1508 1508 1510 1511 1512 1513 1514 1515 1515 1516 1517 1518 1520 1523
1502 1502 1502 1501 1501 1501 1501 1501 1500 1500 1500 1500 1501 1501 1502 1502 1502 1502 1502 1502 1503 1503 1503 1503 1503 1503 1503 1504 1504 1504 1505 1506 1507 1509 1510 1511 1512 1513 1514 1515 1516 1518 1520
1503 1502 1502 1502 1502 1501 1501 1501 1501 1500 1500 1500 1501 1501 1502 1502 1502 1502 1501 1502 1502 1502 1502 1502 1502 1502 1502 1502 1501 1500 1501 1502 1504 1505 1506 1507 1509 1510 1511 1513 1514 1515 1516
1503 1503 1503 1503 1502 1502 1501 1501 1501 1500 1500 1501 1501 1501 1501 1501 1501 1501 1501 1501 1501 1501 1501 1501 1501 1501 1501 1500 1499 1498 1497 1499 1501 1502 1503 1504 1506 1508 1509 1510 1511 1512 1512
1504 1503 1503 1502 1502 1502 1501 1501 1501 1501 1501 1501 1501 1501 1501 1502 1501 1501 1501 1500 1500 1500 1500 1501 1501 1501 1500 1500 1499 1498 1498 1498 1500 1501 1501 1502 1504 1505 1506 1507 1508 1509 1510
1503 1503 1503 1503 1502 1502 1501 1501 1501 1501 1501 1501 1501 1502 1501 1501 1501 1501 1500 1500 1500 1500 1500 1500 1500 1500 1499 1499 1499 1498 1498 1498 1499 1499 1499 1500 1501 1502 1503 1504 1506 1507 1508
1503 1503 1503 1502 1502 1502 1501 1501 1501 1501 1500 1500 1500 1501 1501 1501 1501 1500 1500 1500 1499 1499 1499 1499 1499 1499 1498 1498 1498 1498 1498 1498 1497 1497 1497 1497 1498 1499 1501 1502 1503 1504 1505
1503 1503 1502 1502 1502 1501 1501 1501 1501 1500 1500 1500 1500 1500 1500 1500 1500 1500 1499 1499 1499 1498 1498 1498 1498 1498 1498 1498 1497 1497 1497 1497 1496 1496 1496 1496 1496 1497 1498 1499 1500 1502 1503
1503 1502 1502 1502 1501 1501 1500 1500 1500 1499 1499 1499 1499 1499 1498 1498 1498 1498 1498 1497 1497 1498 1498 1498 1497 1497 1497 1497 1497 1496 1496 1495 1495 1495 1495 1494 1495 1495 1496 1496 1497 1498 1500
1502 1502 1501 1501 1500 1500 1499 1499 1498 1498 1498 1498 1497 1497 1497 1497 1497 1497 1497 1496 1496 1496 1496 1496 1496 1496 1496 1495 1495 1495 1495 1494 1494 1493 1493 1493 1493 1493 1494 1494 1494 1495 1496
1502 1501 1501 1500 1500 1499 1499 1498 1497 1497 1497 1497 1496 1496 1496 1495 1496 1496 1496 1495 1494 1495 1494 1495 1495 1495 1494 1494 1493 1493 1493 1492 1492 1492 1491 1491 1491 1491 1491 1491 1491 1492 1493
1501 1501 1500 1500 1499 1499 1498 1497 1496 1496 1495 1495 1495 1495 1494 1494 1494 1494 1494 1494 1494 1493 1492 1492 1493 1493 1493 1492 1492 1491 1491 1490 1490 1490 1490 1489 1489 1489 1489 1489 1489 1490 1491
1500 1500 1499 1499 1498 1497 1497 1496 1495 1495 1494 1494 1493 1493 1492 1492 1492 1492 1492 1492 1492 1492 1491 1491 1491 1491 1491 1490 1490 1489 1489 1488 1488 1488 1487 1487 1487 1486 1486 1487 1486 1487 1488
1499 1499 1498 1498 1497 1496 1495 1495 1494 1494 1493 1492 1491 1491 1490 1490 1490 1490 1489 1489 1489 1489 1489 1489 1489 1489 1489 1488 1488 1487 1486 1486 1485 1485 1485 1485 1484 1484 1484 1484 1484 1484 1484
1499 1498 1497 1497 1496 1495 1494 1494 1493 1492 1491 1490 1490 1489 1489 1488 1488 1487 1487 1487 1487 1487 1487 1486 1486 1487 1486 1486 1485 1484 1484 1483 1483 1483 1482 1482 1482 1481 1481 1481 1481 1481 1481
1497 1497 1496 1496 1495 1494 1493 1492 1492 1491 1490 1489 1488 1487 1486 1486 1485 1485 1485 1485 1485 1485 1485 1484 1484 1484 1483 1483 1482 1482 1481 1480 1480 1480 1480 1479 1479 1479 1478 1478 1478 1478 1477
1496 1496 1495 1495 1494 1493 1492 1491 1490 1489 1488 1487 1486 1485 1485 1484 1484 1484 1483 1483 1483 1483 1483 1482 1482 1481 1481 1480 1480 1479 1478 1478 1478 1477 1477 1477 1476 1476 1476 1475 1475 1475 1474
1495 1495 1494 1493 1492 1491 1490 1489 1488 1487 1486 1485 1484 1484 1483 1483 1482 1482 1481 1481 1481 1481 1480 1480 1479 1479 1478 1478 1477 1476 1475 1475 1475 1475 1474 1474 1473 1473 1473 1472 1472 1471 1471
1494 1493 1493 1492 1491 1490 1489 1488 1487 1485 1484 1483 1482 1482 1481 1481 1480 1480 1479 1479 1479 1479 1478 1478 1477 1476 1475 1475 1474 1474 1473 1472 1472 1472 1472 1471 1471 1470 1470 1470 1469 1469 1468
1493 1492 1492 1491 1490 1489 1488 1487 1486 1484 1483 1482 1481 1480 1479 1479 1478 1478 1477 1477 1477 1477 1476 1476 1475 1474 1473 1473 1472 1471 1471 1470 1470 1470 1469 1468 1468 1467 1467 1467 1466 1466 1465
1492 1491 1491 1490 1488 1488 1487 1486 1484 1483 1482 1481 1480 1478 1478 1477 1476 1476 1475 1475 1474 1474 1473 1473 1472 1472 1471 1470 1469 1469 1468 1468 1467 1467 1467 1466 1465 1464 1464 1464 1464 1464 1463
1492 1491 1490 1489 1488 1487 1486 1485 1484 1482 1481 1480 1479 1477 1476 1475 1474 1473 1473 1472 1471 1471 1470 1470 1469 1468 1468 1467 1467 1466 1466 1465 1464 1464 1464 1464 1463 1462 1462 1462 1462 1461 1461
1491 1490 1489 1488 1487 1486 1485 1484 1483 1481 1480 1479 1478 1476 1475 1474 1473 1471 1470 1469 1468 1467 1467 1466 1466 1465 1465 1464 1464 1464 1463 1463 1462 1462 1462 1461 1461 1460 1460 1459 1459 1459 1458